Home > Weather > Surat > Past weeks

Flag for India Past Weather in Surat, Gujarat, India — Yesterday and Last 2 Weeks

Now
93 °F

Partly sunny.


Feels Like: 107 °F
Forecast: 81 / 89 °F
Wind: 9 mph from South

Location: Ahmadabad Airport

Current Time: Jun 25, 2016 at 7:52:14 PM

Latest Report: Jun 25, 2016 at 7:00 PM


Visibility: 3 mi

Pressure: 29.53 "Hg

Humidity: 59%

Dew Point: 77 °F

Location of SuratLocation

Past Weather in Surat — Graph

°F

Surat Temperature Yesterday

Maximum temperature yesterday: 100 °F (at 4:00 PM)
Minimum temperature yesterday: 86 °F (at 5:00 AM)
Average temperature yesterday: 92 °F

High & Low Weather Summary for the Past Weeks

 TemperatureHumidityPressure
High109 °F (Jun 12, 4:00 PM)84% (Jun 22, 5:30 PM)29.71 "Hg (Jun 22, 5:30 PM)
Low84 °F (Jun 22, 5:30 PM)25% (Jun 12, 5:00 PM)29.42 "Hg (Jun 20, 5:30 PM)
Average93 °F53%29.59 "Hg
* Reported Jun 10 6:30 PM — Jun 25 6:30 PM, Surat, Weather by CustomWeather, © 2016

Note: Actual official high and low records may vary slightly from our data, if they occured in-between our weather recording intervals... More about our weather records

Advertising

Surat Weather History for the Previous 24 Hours

Scroll right to see more
 ConditionsComfort  
Time TempWeatherWind HumidityBarometerVisibility
6:30 PM
Sat, Jun 25
95 °FPartly sunny.5 mph50%29.53 "Hg4 mi
5:00 PM97 °FPartly sunny.7 mph50%29.53 "Hg5 mi
4:30 PM99 °FPartly sunny.5 mph44%29.53 "Hg5 mi
4:00 PM99 °FPartly sunny.6 mph44%29.53 "Hg5 mi
3:30 PM100 °FBroken clouds.5 mph42%29.56 "Hg5 mi
3:00 PM100 °FScattered clouds.6 mph42%29.56 "Hg5 mi
2:30 PM100 °FScattered clouds.5 mph45%29.56 "Hg5 mi
2:00 PM99 °FScattered clouds.6 mph44%29.56 "Hg5 mi
1:30 PM99 °FScattered clouds.5 mph44%29.59 "Hg4 mi
1:00 PM97 °FScattered clouds.6 mph50%29.59 "Hg4 mi
12:30 PM95 °FScattered clouds.5 mph53%29.59 "Hg4 mi
12:00 PM95 °FScattered clouds.5 mph56%29.62 "Hg3 mi
11:30 AM95 °FScattered clouds.7 mph56%29.62 "Hg3 mi
11:00 AM93 °FScattered clouds.5 mph59%29.65 "Hg3 mi
10:30 AM93 °FScattered clouds.6 mph59%29.65 "Hg3 mi
9:30 AM91 °FScattered clouds.7 mph63%29.65 "Hg2 mi
9:00 AM90 °FScattered clouds.6 mph67%29.65 "Hg2 mi
8:30 AM90 °FScattered clouds.7 mph67%29.65 "Hg2 mi
8:00 AM88 °FScattered clouds.5 mph75%29.65 "Hg2 mi
7:30 AM88 °FPartly sunny.6 mph75%29.62 "Hg2 mi
7:00 AM86 °FPartly sunny.7 mph79%29.62 "Hg2 mi
6:30 AM86 °FPartly sunny.6 mph79%29.59 "Hg2 mi
6:00 AM86 °FPassing clouds.5 mph79%29.59 "Hg2 mi
5:30 AM86 °FPassing clouds.6 mph79%29.59 "Hg2 mi
5:00 AM86 °FPassing clouds.6 mph79%29.56 "Hg2 mi
4:30 AM86 °FPassing clouds.6 mph79%29.56 "Hg2 mi
4:00 AM86 °FPassing clouds.6 mph79%29.56 "Hg2 mi
3:30 AM88 °FPassing clouds.6 mph75%29.56 "Hg2 mi
3:00 AM88 °FPassing clouds.5 mph75%29.56 "Hg2 mi
2:30 AM86 °FPassing clouds.8 mph79%29.56 "Hg2 mi
2:00 AM88 °FPassing clouds.10 mph75%29.56 "Hg2 mi
1:30 AM88 °FPartly cloudy.6 mph70%29.56 "Hg2 mi
1:00 AM88 °FPartly cloudy.6 mph70%29.56 "Hg2 mi
12:30 AM88 °FPartly cloudy.6 mph70%29.59 "Hg2 mi
11:30 PM
Fri, Jun 24
88 °FPartly cloudy.9 mph70%29.59 "Hg2 mi
10:30 PM88 °FPartly cloudy.2 mph70%29.59 "Hg2 mi
10:00 PM88 °FDrizzle. Mostly cloudy.7 mph70%29.59 "Hg2 mi
9:30 PM90 °FDrizzle. Mostly cloudy.7 mph67%29.59 "Hg2 mi
9:00 PM91 °FLight rain. Mostly cloudy.9 mph63%29.59 "Hg2 mi
8:30 PM91 °FDrizzle. Mostly cloudy.5 mph63%29.56 "Hg2 mi
8:00 PM91 °FMostly cloudy.5 mph63%29.56 "Hg2 mi
7:30 PM91 °FMore clouds than sun.6 mph63%29.53 "Hg2 mi
7:00 PM97 °FMore clouds than sun.3 mph50%29.53 "Hg2 mi
Weather by CustomWeather, © 2016

See weather overviewHow to use our weather pages